Weather History for Lancaster, OH

Change the Weather History Date:

Friday, December 7, 2012

  Actual Average Record
Temperature  
Mean Temperature 47 °F -  
Max Temperature 52 °F 43 °F 68 °F (1998)
Min Temperature 42 °F 24 °F 0 °F (1984)
Degree Days  
Heating Degree Days 18    
Moisture  
Dew Point 48 °F    
Average Humidity 92    
Maximum Humidity 100    
Minimum Humidity 87    
Precipitation  
Precipitation 0.78 in - - ()
Sea Level Pressure  
Sea Level Pressure 29.94 in    
Wind  
Wind Speed 2 mph (SE)    
Max Wind Speed 7 mph    
Max Gust Speed -    
Visibility 4 miles    
Events Rain    
Averages and records for this station are not official NWS values.
T = Trace of Precipitation, MM = Missing Value Source: NWS Daily Summary

Daily Weather History Graph

Daily Weather History Graph

Search for Another Location

Airport:

Trip Planner

Search our weather history database for the weather conditions in past years. The results will help you decide how hot, cold, wet, or windy it might be!

Date:

Astronomy

Dec. 07, 2012 Rise Set
Actual Time 7:38 AM EST 5:05 PM EST
Civil Twilight 7:08 AM EST 5:36 PM EST
Nautical Twilight 6:34 AM EST 6:09 PM EST
Astronomical Twilight 6:02 AM EST 6:42 PM EST
Moon 12:57 AM EST (12/7) 1:01 PM EST (12/7)
Length of Visible Light 10h 27m
Length of Day
9h 27m
Last Quarter, 39% of the Moon is Illuminated
Dec 7
Last Quarter
Dec 13
New
Dec 20
First Quarter
Dec 28
Full
Jan 4
Last Quarter

Hourly Weather History & Observations

Time (EST) Temp. Windchill Dew Point Humidity Pressure Visibility Wind Dir Wind Speed Gust Speed Precip Events Conditions
12:23 AM 42.8 °F 39.3 °F 39.2 °F 87% 29.99 in 10.0 mi SSE 5.8 mph - 0.01 in   Overcast
12:53 AM 43.0 °F 41.3 °F 41.0 °F 93% 30.00 in 4.0 mi SSE 3.5 mph - 0.04 in Rain Light Rain
1:53 AM 45.0 °F - 43.0 °F 93% 29.98 in 8.0 mi Calm Calm - 0.05 in   Overcast
2:53 AM 45.0 °F - 43.0 °F 93% 30.00 in 5.0 mi Calm Calm - 0.02 in Rain Light Rain
3:38 AM 44.6 °F - 44.6 °F 100% 29.99 in 2.5 mi Calm Calm - 0.04 in Rain Rain
3:53 AM 45.0 °F - 43.0 °F 93% 29.99 in 2.5 mi Calm Calm - 0.06 in Rain Rain
4:08 AM 46.4 °F 45.2 °F 44.6 °F 93% 29.98 in 3.0 mi South 3.5 mph - 0.02 in Rain Light Rain
4:26 AM 46.4 °F 45.2 °F 44.6 °F 93% 29.98 in 4.0 mi South 3.5 mph - 0.04 in Rain Light Rain
4:35 AM 46.4 °F 45.2 °F 44.6 °F 93% 29.97 in 4.0 mi SSE 3.5 mph - 0.05 in Rain Rain
4:45 AM 46.4 °F - 46.4 °F 100% 29.98 in 3.0 mi Calm Calm - 0.07 in Rain Rain
4:53 AM 46.9 °F - 46.0 °F 97% 29.99 in 4.0 mi South 3.5 mph - 0.08 in Rain Rain
5:10 AM 48.2 °F - 46.4 °F 93% 29.98 in 4.0 mi South 3.5 mph - 0.02 in Rain Light Rain
5:53 AM 48.9 °F - 46.9 °F 93% 29.99 in 10.0 mi WSW 6.9 mph - 0.02 in   Overcast
6:31 AM 48.2 °F - 46.4 °F 93% 29.98 in 9.0 mi WSW 5.8 mph - N/A   Overcast
6:53 AM 48.9 °F - 46.9 °F 93% 29.99 in 9.0 mi SW 3.5 mph - 0.00 in   Overcast
7:33 AM 48.2 °F - 46.4 °F 93% 30.00 in 7.0 mi WSW 6.9 mph - N/A   Overcast
7:53 AM 48.9 °F - 48.0 °F 97% 30.01 in 6.0 mi WSW 5.8 mph - N/A   Overcast
8:53 AM 50.0 °F - 48.0 °F 93% 30.01 in 4.0 mi Calm Calm - N/A   Overcast
9:28 AM 50.0 °F - 48.2 °F 94% 30.01 in 2.0 mi NW 3.5 mph - N/A   Overcast
9:46 AM 50.0 °F - 48.2 °F 94% 30.01 in 2.5 mi Calm Calm - N/A   Overcast
9:53 AM 50.0 °F - 48.0 °F 93% 30.01 in 4.0 mi Calm Calm - N/A   Overcast
10:53 AM 51.1 °F - 48.0 °F 89% 30.02 in 5.0 mi Calm Calm - 0.00 in   Overcast
11:07 AM 51.8 °F - 48.2 °F 88% 30.00 in 6.0 mi Calm Calm - N/A   Overcast
11:24 AM 51.8 °F - 48.2 °F 88% 29.99 in 7.0 mi Calm Calm - N/A   Overcast
11:38 AM 51.8 °F - 48.2 °F 88% 29.99 in 9.0 mi Calm Calm - N/A   Overcast
11:53 AM 52.0 °F - 48.9 °F 89% 29.99 in 7.0 mi Calm Calm - 0.00 in Rain Light Rain
12:12 PM 51.8 °F - 48.2 °F 88% 29.98 in 6.0 mi Calm Calm - 0.01 in Rain Light Rain
12:51 PM 51.8 °F - 48.2 °F 88% 29.96 in 2.5 mi NNE 3.5 mph - 0.03 in Rain Light Rain
12:53 PM 51.1 °F - 48.9 °F 92% 29.97 in 3.0 mi NNE 3.5 mph - 0.03 in Rain Light Rain
1:03 PM 51.8 °F - 48.2 °F 88% 29.95 in 2.5 mi NNE 4.6 mph - 0.00 in Rain Light Rain
1:21 PM 51.8 °F - 48.2 °F 88% 29.95 in 3.0 mi Calm Calm - 0.02 in Rain Light Rain
1:30 PM 51.8 °F - 48.2 °F 88% 29.95 in 2.5 mi North 3.5 mph - 0.02 in Rain Light Rain
1:46 PM 51.8 °F - 48.2 °F 88% 29.94 in 3.0 mi NNE 3.5 mph - 0.03 in Rain Light Rain
1:53 PM 51.1 °F - 48.9 °F 92% 29.94 in 3.0 mi Calm Calm - 0.04 in Rain Light Rain
2:05 PM 51.8 °F - 48.2 °F 88% 29.93 in 4.0 mi Calm Calm - 0.01 in Rain Light Rain
2:53 PM 51.1 °F - 48.0 °F 89% 29.93 in 3.0 mi Calm Calm - 0.05 in Rain Light Rain
3:08 PM 51.8 °F - 48.2 °F 88% 29.92 in 3.0 mi Calm Calm - 0.01 in Rain Light Rain
3:32 PM 51.8 °F - 48.2 °F 88% 29.92 in 3.0 mi Calm Calm - 0.03 in Rain Light Rain
3:53 PM 51.1 °F - 48.9 °F 92% 29.92 in 3.0 mi ENE 3.5 mph - 0.04 in Rain Light Rain
4:38 PM 51.8 °F - 48.2 °F 88% 29.91 in 2.5 mi East 3.5 mph - 0.01 in Rain Light Rain
4:44 PM 51.8 °F - 48.2 °F 88% 29.91 in 2.0 mi East 5.8 mph - 0.02 in Rain Light Rain
4:53 PM 51.1 °F - 48.9 °F 92% 29.91 in 1.8 mi East 3.5 mph - 0.04 in Rain Rain
4:58 PM 51.8 °F - 48.2 °F 88% 29.91 in 2.5 mi East 3.5 mph - 0.00 in Rain Rain
5:08 PM 50.0 °F - 48.2 °F 94% 29.91 in 3.0 mi Calm Calm - 0.02 in Rain Rain
5:16 PM 50.0 °F - 48.2 °F 94% 29.90 in 3.0 mi East 5.8 mph - 0.04 in Rain Rain
5:34 PM 50.0 °F - 48.2 °F 94% 29.92 in 2.0 mi Calm Calm - 0.06 in Rain Rain
5:43 PM 51.8 °F - 50.0 °F 94% 29.91 in 1.5 mi Calm Calm - 0.11 in Rain Heavy Rain
5:53 PM 50.0 °F - 48.9 °F 96% 29.90 in 2.0 mi ENE 3.5 mph - 0.13 in Rain Rain
6:02 PM 50.0 °F - 48.2 °F 94% 29.90 in 1.8 mi Calm Calm - 0.01 in Rain Light Rain
6:09 PM 50.0 °F - 48.2 °F 94% 29.90 in 2.0 mi Calm Calm - 0.01 in Rain Light Rain
6:27 PM 50.0 °F - 48.2 °F 94% 29.90 in 1.8 mi Calm Calm - 0.04 in Rain Light Rain
6:43 PM 50.0 °F - 48.2 °F 94% 29.90 in 2.0 mi Calm Calm - 0.05 in Rain Light Rain
6:53 PM 50.0 °F - 48.0 °F 93% 29.90 in 2.0 mi Calm Calm - 0.05 in Rain Light Rain
7:05 PM 50.0 °F - 48.2 °F 94% 29.90 in 2.5 mi Calm Calm - 0.00 in Rain Light Rain
7:26 PM 50.0 °F - 48.2 °F 94% 29.89 in 1.8 mi Calm Calm - 0.01 in Rain Light Rain
7:48 PM 50.0 °F - 48.2 °F 94% 29.90 in 1.2 mi Calm Calm - 0.03 in Rain Light Rain
7:53 PM 50.0 °F - 48.9 °F 96% 29.90 in 1.2 mi Calm Calm - 0.03 in Rain Light Rain
8:22 PM 50.0 °F - 48.2 °F 94% 29.89 in 2.0 mi Calm Calm - 0.03 in Rain Light Rain
8:25 PM 50.0 °F - 48.2 °F 94% 29.89 in 2.5 mi Calm Calm - 0.03 in Rain Light Rain
8:35 PM 51.8 °F - 48.2 °F 88% 29.89 in 3.0 mi Calm Calm - 0.04 in Rain Light Rain
8:44 PM 51.8 °F - 48.2 °F 88% 29.89 in 4.0 mi Calm Calm - 0.04 in Rain Light Rain
8:53 PM 51.1 °F - 50.0 °F 96% 29.89 in 4.0 mi SE 4.6 mph - 0.05 in Rain Light Rain
9:21 PM 51.8 °F - 50.0 °F 94% 29.88 in 5.0 mi SSE 4.6 mph - 0.00 in Rain Light Rain
9:48 PM 51.8 °F - 50.0 °F 94% 29.88 in 2.5 mi Calm Calm - 0.03 in Rain Light Rain
9:53 PM 51.1 °F - 50.0 °F 96% 29.88 in 2.5 mi SSE 4.6 mph - 0.05 in Rain Rain
9:59 PM 51.8 °F - 48.2 °F 88% 29.87 in 3.0 mi SSE 5.8 mph - 0.00 in Rain Light Rain
10:36 PM 51.8 °F - 50.0 °F 94% 29.86 in 4.0 mi SSE 3.5 mph - 0.02 in Rain Light Rain
11:53 PM 52.0 °F - 50.0 °F 93% 29.86 in 9.0 mi South 3.5 mph - N/A   Overcast